This is the latest recevied weather packets stored in our database for station/object IT9RID. If no packets are shown the sender has not sent any weather packets the latest 10 day(s).
| Time | Temp. | Humidity | Pressure | Rain* | Wind** | Luminosity | Snow |
|---|---|---|---|---|---|---|---|
| 1777309287 | 18.33° C | 71% | 1016.6 hPa | 0 mm | - | - | - |
| 1777308690 | 18.89° C | 69% | 1016.7 hPa | 0 mm | - | - | - |
| 1777308087 | 19.44° C | 65% | 1016.6 hPa | 0 mm | - | - | - |
| 1777307487 | 20° C | 62% | 1016.7 hPa | 0 mm | - | - | - |
| 1777306887 | 20.56° C | 61% | 1016.8 hPa | 0 mm | - | - | - |
| 1777306286 | 20.56° C | 59% | 1016.9 hPa | 0 mm | - | - | - |
| 1777305686 | 20.56° C | 58% | 1016.9 hPa | 0 mm | - | - | - |
| 1777305086 | 20.56° C | 56% | 1016.8 hPa | 0 mm | - | - | - |
| 1777304486 | 21.11° C | 54% | 1017 hPa | 0 mm | - | - | - |
| 1777303886 | 20.56° C | 52% | 1017 hPa | 0 mm | - | - | - |
| 1777303289 | 20.56° C | 52% | 1017 hPa | 0 mm | - | - | - |
| 1777302685 | 20.56° C | 51% | 1017 hPa | 0 mm | - | - | - |
| 1777302085 | 20.56° C | 55% | 1017 hPa | 0 mm | - | - | - |
| 1777301485 | 20° C | 56% | 1017 hPa | 0 mm | - | - | - |
| 1777300285 | 20° C | 54% | 1017 hPa | 0 mm | - | - | - |
| 1777299685 | 20° C | 54% | 1017.2 hPa | 0 mm | - | - | - |
| 1777299084 | 20° C | 54% | 1017.3 hPa | 0 mm | - | - | - |
| 1777298484 | 20° C | 53% | 1017.3 hPa | 0 mm | - | - | - |
| 1777297884 | 20.56° C | 54% | 1017.4 hPa | 0 mm | - | - | - |
| 1777297284 | 20° C | 56% | 1017.5 hPa | 0 mm | - | - | - |
| 1777296684 | 20° C | 61% | 1017.5 hPa | 0 mm | - | - | - |
| 1777296084 | 19.44° C | 61% | 1017.6 hPa | 0 mm | - | - | - |
| 1777295487 | 19.44° C | 59% | 1017.6 hPa | 0 mm | - | - | - |
| 1777294883 | 20° C | 61% | 1017.8 hPa | 0 mm | - | - | - |
| 1777294283 | 20° C | 61% | 1017.8 hPa | 0 mm | - | - | - |
* Rain latest hour (hover to see other rain measurements)
** Current wind speed in m/s (hover to see current wind gust speed)